This is the latest recevied weather packets stored in our database for station/object VE3CGR-6. If no packets are shown the sender has not sent any weather packets the latest 10 day(s).
| Time | Temp. | Humidity | Pressure | Rain* | Wind** | Luminosity | Snow |
|---|---|---|---|---|---|---|---|
| 1788349216 | 19.44° C | 93% | 1015 hPa | 0 mm | - | - | - |
| 1788348617 | 20° C | 93% | 1014.7 hPa | 0 mm | - | - | - |
| 1788348016 | 19.44° C | 93% | 1014.9 hPa | 0.25 mm | - | - | - |
| 1788347416 | 19.44° C | 93% | 1014.9 hPa | 7.87 mm | - | - | - |
| 1788346816 | 19.44° C | 93% | 1014.9 hPa | 18.54 mm | - | - | - |
| 1788346216 | 19.44° C | 93% | 1015 hPa | 19.05 mm | - | - | - |
| 1788345616 | 20° C | 93% | 1014.8 hPa | 19.3 mm | - | - | - |
| 1788345016 | 20° C | 93% | 1014.8 hPa | 24.89 mm | - | - | - |
| 1788344416 | 20° C | 93% | 1015 hPa | 26.42 mm | - | - | - |
| 1788343816 | 20° C | 92% | 1015.8 hPa | 19.05 mm | - | - | - |
| 1788343216 | 21.11° C | 92% | 1015.7 hPa | 13.21 mm | - | - | - |
| 1788342616 | 21.11° C | 92% | 1014.9 hPa | 12.7 mm | - | - | - |
| 1788342016 | 21.11° C | 93% | 1013.2 hPa | 12.7 mm | - | - | - |
| 1788341416 | 20.56° C | 92% | 1014 hPa | 7.11 mm | - | - | - |
| 1788340816 | 21.11° C | 92% | 1013.7 hPa | 5.08 mm | - | - | - |
| 1788340216 | 21.11° C | 92% | 1013.7 hPa | 4.83 mm | - | - | - |
| 1788339616 | 20.56° C | 92% | 1014 hPa | 0 mm | - | - | - |
| 1788339016 | 20.56° C | 92% | 1014 hPa | 0 mm | - | - | - |
| 1788338416 | 20.56° C | 92% | 1014.4 hPa | 0 mm | - | - | - |
| 1788337816 | 20.56° C | 92% | 1014.4 hPa | 0 mm | - | - | - |
| 1788337216 | 20.56° C | 92% | 1014.7 hPa | 0 mm | - | - | - |
| 1788336616 | 20.56° C | 92% | 1014.6 hPa | 0 mm | - | - | - |
| 1788336016 | 20.56° C | 92% | 1014.7 hPa | 0 mm | - | - | - |
| 1788335427 | 20.56° C | 92% | 1014.8 hPa | 0 mm | - | - | - |
| 1788334816 | 20.56° C | 92% | 1014.9 hPa | 0 mm | - | - | - |
* Rain latest hour (hover to see other rain measurements)
** Current wind speed in m/s (hover to see current wind gust speed)